GFSCGP_850_dewp_057.txt.gz
Dewpoint
-3 -4 -0 -4 -3 -3 1 3 1 7 8 9 10 10 15 15 14 14 14 14 14 14 13 14 15 15 15 12 10 9 5 4 4 6 9 13 13 13 14 13 13 13 14 13
-3 -4 -6 -6 -6 -3 -1 2 4 3 5 9 10 10 13 15 14 14 14 14 14 13 13 14 15 15 15 14 12 10 8 4 4 7 11 12 12 13 13 13 13 13 14 14
-3 -4 -6 -6 -6 -4 -3 -1 2 3 4 5 9 10 11 14 14 14 13 13 13 13 13 14 15 15 15 15 13 11 9 9 5 5 10 12 12 12 13 13 13 13 13 14
1 -3 -4 -5 -5 -6 -4 -5 -0 1 2 8 7 12 11 12 16 15 14 14 13 12 12 12 14 15 15 15 13 13 11 12 6 6 6 10 11 11 12 13 13 13 13 14
2 -0 -1 -2 -4 -6 -6 -8 -7 -2 3 3 4 10 9 11 16 15 14 14 14 14 13 13 13 14 14 15 12 13 12 13 9 7 8 10 11 11 11 13 14 13 13 13
-2 -2 -1 -2 -4 -5 -7 -3 -5 -7 -3 5 5 6 8 10 13 14 14 14 14 14 14 14 14 14 14 14 14 12 12 13 11 10 10 11 11 12 12 12 13 13 13 13
2 -1 -3 -2 -1 -3 -4 -4 0 2 -2 3 3 6 5 5 7 10 13 14 14 14 14 15 15 15 14 14 14 12 12 13 13 11 11 12 12 12 12 12 12 13 12 13
3 -2 -2 -3 -2 -0 -1 -2 -2 3 -1 -5 0 6 5 2 1 7 9 11 13 14 14 14 15 15 14 13 13 12 12 13 12 12 12 11 12 13 12 12 12 12 13 11
5 4 1 0 0 -2 0 1 -3 -2 2 0 -6 1 2 2 3 2 4 10 13 14 14 14 15 15 14 13 12 11 11 12 12 12 11 11 12 12 13 12 12 12 12 11
1 -1 1 1 0 -0 -1 -2 2 1 2 2 -1 -1 1 4 4 3 3 8 11 13 14 14 14 15 14 13 11 11 10 10 11 12 11 10 11 11 12 12 12 12 12 12
2 0 -4 -0 2 1 1 1 1 1 1 1 0 -0 -1 1 4 4 4 5 7 10 12 13 14 14 14 13 12 11 11 10 11 11 10 10 11 11 12 13 12 11 12 13
2 1 0 -1 0 1 2 2 0 4 5 3 2 -1 -1 1 1 2 2 4 6 8 11 12 13 14 14 14 13 11 11 12 11 10 10 11 11 11 12 13 13 11 12 12
3 3 2 -8 -5 1 2 2 2 1 2 5 4 2 -2 0 0 2 3 3 7 10 11 12 13 13 14 15 14 12 12 11 12 12 11 11 11 11 12 12 12 12 11 12
3 2 1 -2 -2 -0 3 2 1 2 3 4 5 3 0 -1 1 0 0 0 2 7 10 12 13 13 13 14 14 13 12 12 12 12 12 12 12 11 12 12 12 12 11 12
2 1 -1 -3 -3 -2 0 1 1 1 2 3 2 4 3 2 2 0 1 4 4 3 5 10 11 11 12 13 13 13 13 11 12 12 12 11 11 12 12 12 12 11 11 11
3 0 0 -1 -4 -1 0 -1 -0 -1 1 2 2 3 0 4 9 8 11 11 11 11 11 7 12 12 11 12 11 12 13 12 11 11 11 11 11 11 12 12 12 11 11 11
2 2 -0 -3 0 1 2 0 -1 -0 3 1 4 2 6 8 11 10 9 10 11 12 12 13 8 12 8 9 10 10 11 12 11 11 11 11 11 11 11 11 12 11 11 11
2 2 1 -0 -1 4 -1 2 -0 4 4 4 5 6 7 11 10 9 8 8 9 11 12 12 11 6 10 9 12 12 13 12 12 11 11 11 11 11 11 11 11 11 12 11
-1 2 1 1 4 5 5 5 4 5 5 3 4 4 5 7 10 9 6 7 9 11 13 14 11 5 3 11 11 11 12 12 12 11 10 11 11 11 12 12 11 11 11 11
0 1 3 -0 6 7 7 4 3 4 7 2 3 4 4 8 11 7 6 8 11 13 14 14 11 7 4 9 12 12 12 12 10 10 10 10 9 9 9 10 10 10 11 10
4 4 3 2 4 5 4 3 3 9 6 2 3 3 3 4 4 5 7 10 12 13 15 16 11 13 9 11 13 12 12 10 10 11 10 8 8 9 10 11 12 12 12 12
2 3 3 3 5 6 3 3 6 4 2 3 4 4 4 3 4 3 5 7 9 12 14 16 15 13 13 12 11 11 11 11 12 11 11 10 10 11 12 12 12 13 13 13
6 5 6 6 6 3 4 4 4 4 3 4 5 4 4 3 3 4 4 3 3 3 9 13 15 16 15 14 14 13 12 12 12 11 11 11 12 12 13 12 13 14 14 14
3 3 4 3 4 4 5 5 5 5 4 4 5 5 5 4 3 2 3 3 2 0 -1 3 15 16 16 15 14 14 13 13 13 12 12 13 13 13 13 13 14 14 14 14
3 3 3 4 4 4 4 5 6 6 6 6 5 5 5 5 4 3 2 2 3 1 -0 -2 -3 0 13 16 16 17 16 15 15 14 14 14 14 14 14 14 16 14 16 16
3 4 4 5 5 5 4 4 4 5 6 6 6 6 6 7 6 4 3 1 1 0 -2 -2 -3 -4 -3 9 15 14 14 16 18 18 17 16 17 16 16 16 16 15 16 15

GFSCGP_850_dewp_060.txt.gz
Dewpoint
-6 -2 -3 -6 -6 -7 -4 -4 -3 5 8 10 10 10 13 13 13 13 14 14 14 13 13 13 13 13 13 14 15 15 14 14 13 13 14 14 15 15 16 16 14 14 14 13
-5 -4 -6 -7 -8 -6 -5 -0 1 -1 6 10 10 10 9 13 12 13 14 14 13 13 13 13 14 13 13 13 14 15 14 14 7 12 13 14 15 15 15 16 13 13 14 13
-4 -6 -9 -8 -5 -5 -5 -5 -1 0 1 7 10 10 10 10 12 12 13 13 13 13 13 13 14 13 13 13 15 15 14 13 5 12 13 15 16 16 17 16 15 14 13 14
-3 -5 -5 -6 -5 -6 -6 -9 -8 -1 2 6 7 12 10 9 13 12 12 13 13 13 13 13 13 14 13 13 15 15 15 9 6 6 13 15 15 14 14 15 14 15 13 14
-0 -2 -2 -3 -4 -7 -6 -9 -8 -7 1 3 5 10 8 8 11 13 12 12 12 13 12 12 13 14 13 14 14 16 16 13 11 5 10 14 13 12 14 14 16 16 14 13
-1 -1 -2 -3 -4 -5 -7 -7 -7 -7 -8 1 3 6 8 8 9 9 11 11 12 12 12 12 12 13 14 14 14 15 16 11 9 9 5 11 13 13 14 15 15 15 15 16
-4 -3 -2 -2 -1 -3 -5 -5 -1 -2 -5 -8 -4 3 5 4 6 6 8 11 12 12 12 12 12 13 14 14 15 15 16 14 10 10 9 5 8 14 15 16 15 14 14 14
-3 -4 -6 -3 -1 -1 -2 -3 -2 1 -3 -7 -11 -1 2 2 3 5 7 9 11 12 12 13 13 13 13 14 15 15 15 13 12 10 11 5 7 14 15 15 15 15 14 14
-3 -3 -3 -2 -4 -2 -1 -1 -4 -4 -4 -4 -9 -10 -6 -1 1 3 5 7 9 10 12 13 14 14 14 14 14 15 15 14 12 13 12 7 9 12 15 15 14 15 15 14
-4 -3 -6 -2 -0 -1 -0 -2 -0 -1 1 2 -2 -4 -8 1 2 3 3 3 6 8 11 12 13 14 15 14 14 15 16 15 14 14 14 12 10 11 12 15 14 15 15 13
-5 -5 -9 -7 -1 -2 -1 1 0 -2 -1 1 1 -3 -8 -6 -2 2 2 3 3 8 11 12 12 13 14 15 14 15 15 16 15 14 15 14 13 12 11 12 12 12 13 12
-5 -5 -4 -7 -9 -1 -0 1 -0 2 3 -0 0 -3 -7 -6 -6 -2 1 1 2 4 7 10 11 13 14 14 14 14 15 15 15 15 13 11 13 11 14 11 11 12 12 12
-3 -5 -3 -5 -9 -8 -3 -0 1 -0 0 3 3 1 -4 -3 -0 -4 -2 -0 2 3 5 8 10 12 13 14 14 14 14 14 14 15 15 14 13 14 13 10 11 12 12 12
-2 -6 -3 -5 -5 -5 1 2 2 2 3 3 2 2 -1 -2 -1 0 2 1 1 4 6 8 10 10 13 14 14 14 14 14 14 14 15 14 9 10 10 10 11 11 12 12
-1 -2 -4 -5 -7 -7 -5 -3 -1 1 2 3 1 2 1 -0 -2 -2 -1 2 3 2 4 7 10 11 13 14 14 15 14 14 14 14 15 15 10 10 10 11 11 11 12 12
-1 0 -3 -3 -7 -9 -9 -8 -5 -3 1 1 1 2 -1 0 2 6 4 8 8 7 7 6 9 11 12 13 15 16 15 15 14 14 14 15 11 10 10 11 11 11 11 12
0 -1 -2 -3 -8 -7 -3 -4 -3 -3 -1 0 2 1 0 1 4 7 8 8 8 8 9 10 11 9 10 12 14 15 15 15 15 15 15 14 12 12 11 11 11 12 12 12
1 2 -1 -3 -5 -4 -12 -13 -7 -4 -2 -1 0 -0 1 5 8 9 9 9 10 10 11 11 11 11 11 10 11 14 15 16 16 16 15 13 11 12 12 11 11 11 12 12
-2 2 -0 -1 -4 -8 -4 6 6 7 -0 1 3 2 3 5 9 10 10 10 11 12 13 13 13 13 13 12 11 12 15 16 16 16 13 12 11 11 12 13 12 11 12 12
-3 -0 3 -1 2 2 6 4 3 4 7 3 3 4 5 6 8 7 9 9 12 13 14 15 15 15 15 14 12 12 14 15 16 16 12 13 12 11 11 12 12 12 12 11
4 4 4 2 2 1 2 3 4 9 7 4 4 5 6 7 7 7 6 8 9 10 13 15 17 16 15 15 12 12 14 15 15 16 17 16 15 12 12 12 12 12 12 13
2 4 3 2 3 4 3 3 6 6 5 4 5 4 4 5 5 5 6 6 8 8 9 15 17 16 14 12 11 13 15 15 16 17 16 17 14 15 16 12 12 13 13 12
3 2 4 2 2 4 4 4 4 4 5 5 4 5 4 4 4 5 5 6 6 7 8 10 16 17 16 15 14 16 16 16 17 17 17 17 14 16 15 12 13 14 13 17
2 3 5 4 4 4 4 4 6 6 6 6 5 6 5 6 6 5 5 5 2 1 1 7 8 15 17 18 17 17 17 17 17 18 18 18 16 17 18 18 18 18 18 18
2 2 2 3 3 3 4 4 5 6 6 6 7 7 7 7 7 6 5 3 1 1 1 1 5 9 12 15 17 17 18 18 18 18 18 19 18 18 19 18 18 18 18 18
3 4 4 4 3 4 4 3 4 4 5 5 5 5 6 6 6 6 5 4 3 2 1 2 2 4 8 10 14 17 18 18 18 18 18 17 17 18 18 18 19 18 18 18

GFSCGP_850_dewp_063.txt.gz
Dewpoint
-0 -0 -3 -3 -3 -5 -9 -8 -3 -1 9 9 10 12 17 11 10 13 13 12 13 13 13 12 12 12 11 12 13 14 14 14 15 15 15 14 14 14 15 15 16 16 17 17
-5 -4 -5 -7 -7 -7 -8 -6 -5 -4 2 10 10 11 11 11 11 12 13 13 12 13 13 12 12 12 12 13 14 14 14 14 15 14 14 14 14 14 14 14 16 16 16 17
-2 -6 -7 -6 -6 -6 -7 -6 -5 -1 -2 6 9 12 11 15 10 11 12 13 12 12 13 13 13 12 12 13 14 14 14 14 14 14 14 14 14 14 14 15 16 16 16 17
-4 -6 -6 -6 -6 -6 -4 -8 -8 -6 0 4 6 13 15 12 11 11 12 12 12 11 12 13 13 13 12 12 14 14 15 14 14 13 13 14 14 13 13 14 14 15 16 16
-3 -4 -5 -4 -6 -8 -5 -8 -9 -9 -7 1 3 7 12 12 14 11 11 12 12 12 12 12 13 13 12 12 13 14 15 15 14 10 13 13 14 13 13 13 14 15 16 17
-4 -4 -5 -6 -6 -6 -6 -7 -7 -8 -8 -4 1 4 8 10 10 9 10 10 11 12 12 12 12 13 13 13 13 14 15 15 13 11 8 13 14 14 12 13 15 14 16 16
-9 -7 -5 -3 -3 -5 -4 -4 -1 -2 -3 -4 -9 1 4 5 8 8 9 9 10 11 12 12 12 12 13 13 13 14 15 15 12 12 6 12 13 11 13 14 14 14 13 13
-7 -6 -8 -8 -3 -2 -3 -3 -1 2 -1 -4 -8 -7 -1 0 3 6 7 8 9 10 11 12 12 12 13 14 14 14 15 16 15 12 9 5 8 13 14 15 14 14 13 13
-10 -9 -7 -7 -8 -5 -2 -1 -5 -3 -4 -3 -7 -10 -13 -5 -0 6 10 8 9 10 10 11 12 12 13 14 14 14 15 16 17 16 13 8 5 7 13 14 13 15 14 13
-8 -4 -6 -8 -5 -3 -3 -4 -1 -3 2 2 -3 -4 -8 -9 -4 -0 3 4 7 9 10 11 12 12 12 13 14 15 15 16 17 17 15 13 8 6 10 14 16 15 15 14
-7 -7 -6 -12 -4 -2 -3 -1 -0 -1 -2 1 1 -3 -7 -7 -7 -2 0 3 5 8 9 10 11 12 12 13 14 14 15 16 17 17 17 15 15 13 5 14 15 15 16 16
-6 -6 -5 -7 -12 -12 -9 -6 -7 2 3 -1 -1 -2 -7 -7 -9 -4 -1 0 2 3 7 8 9 11 13 14 14 14 14 15 16 17 17 16 15 15 14 9 13 15 15 15
-5 -4 -2 -5 -8 -9 -8 -5 -3 -3 -3 2 1 -1 -6 -6 -5 -8 -6 -3 1 2 5 8 9 10 12 13 14 14 14 14 15 16 16 16 16 16 14 14 10 13 13 12
-4 -3 -2 -3 -5 -6 -5 -7 -4 -2 0 -0 1 -1 -3 -3 -2 -2 -4 -3 -1 1 3 5 7 9 11 12 14 14 14 14 14 15 15 16 16 16 15 14 11 11 11 11
-4 -2 -4 -6 -7 -7 -6 -5 -4 -3 1 4 -0 1 -0 -3 -3 -2 -0 0 1 3 3 3 4 8 11 12 14 15 14 14 14 14 14 15 16 16 16 14 14 10 11 10
-5 -2 -2 1 -3 -6 -6 -7 -6 -3 -1 1 2 3 -0 -1 0 -3 0 2 6 6 4 4 7 8 10 12 14 15 15 14 14 14 14 14 15 16 15 15 14 12 11 10
-1 4 1 1 -4 -5 -4 -7 -9 -8 -6 -3 0 1 0 1 2 4 3 6 7 7 7 8 8 8 9 12 14 14 15 15 14 14 15 14 15 14 15 13 13 11 10 11
1 3 3 5 -1 2 -5 -13 -10 -7 -8 -7 -5 -3 -1 -0 0 3 9 9 9 9 9 9 9 9 10 10 12 14 15 16 15 15 16 15 16 16 14 15 12 9 9 10
-6 -3 4 4 0 -4 -6 1 4 4 3 -8 -5 -4 -3 -2 -2 2 9 10 11 12 12 13 12 11 11 11 11 11 14 16 16 16 15 16 16 17 16 14 13 12 11 11
-5 -3 2 -1 1 1 -3 3 1 3 5 5 -3 -2 1 1 4 3 8 9 10 11 12 13 14 14 14 14 13 11 13 14 16 17 17 17 17 17 18 16 14 12 12 11
4 4 3 1 2 -1 -5 -0 0 7 7 6 5 6 4 5 7 7 8 9 10 11 11 11 14 17 17 16 14 13 12 14 15 17 17 18 18 18 18 18 18 15 13 17
4 5 4 3 2 2 3 1 2 5 5 5 5 5 6 5 6 6 7 7 8 10 10 11 13 18 19 16 16 15 13 13 15 16 17 18 18 18 18 18 18 18 16 16
2 4 5 2 1 2 3 4 4 4 4 4 5 5 6 6 5 5 6 6 6 8 10 10 12 15 18 17 15 15 15 15 15 16 17 17 18 18 18 18 18 19 18 18
4 2 4 4 -1 3 3 4 4 5 6 5 6 5 6 6 7 7 6 6 6 7 9 10 11 13 17 17 17 17 17 16 16 17 18 18 18 18 18 19 19 19 18 18
2 1 3 4 2 2 2 4 4 4 6 6 7 7 7 7 7 7 7 7 7 9 8 6 9 11 13 16 18 18 17 17 17 18 18 18 18 19 18 18 18 18 17 17
3 3 3 4 2 3 4 3 3 3 4 4 4 5 5 5 6 7 7 7 7 8 8 2 4 6 9 13 16 18 18 18 18 18 18 18 18 19 18 18 18 17 17 17

GFSCGP_850_dewp_069.txt.gz
Dewpoint
0 2 5 3 1 -1 -0 0 -1 -4 -3 1 12 16 14 12 13 16 16 14 14 14 14 13 11 10 10 10 11 12 12 12 13 13 12 13 15 15 15 15 15 15 15 11
4 4 2 1 0 0 -1 -1 -0 -3 -6 8 16 16 14 13 15 15 16 14 14 14 14 12 11 11 11 10 11 11 12 13 13 15 12 14 14 14 15 14 15 14 15 15
0 2 0 1 1 -2 -3 -1 -2 -2 -6 7 14 16 15 13 13 14 15 15 14 13 13 13 12 11 11 11 11 11 12 14 13 12 13 14 15 15 15 16 15 15 17 14
0 -2 -3 -0 0 -2 -3 -5 -5 -6 -6 -2 5 15 16 13 14 15 16 15 14 13 13 13 12 11 12 11 11 11 12 15 14 13 11 14 14 15 14 14 15 15 12 13
-1 -1 -0 -1 -3 -6 -4 -5 -5 -4 -4 -5 -6 -2 16 13 15 15 13 12 12 13 12 13 12 11 12 12 12 12 11 14 14 14 11 13 14 14 15 15 15 14 13 12
-7 -8 -7 -4 -4 -5 -7 -6 -5 -5 -3 -0 -4 -4 16 15 14 13 12 10 11 13 13 12 12 12 12 12 12 12 12 12 13 14 11 12 13 14 15 14 15 14 15 14
-8 -13 -13 -10 -3 -5 -5 -4 -0 0 0 0 -4 -4 -6 14 12 12 12 13 13 12 13 13 13 12 12 12 12 12 12 12 11 12 12 11 11 13 14 14 12 15 15 14
-5 -4 -13 -13 -5 -1 -3 -4 0 2 2 0 -3 -2 -3 7 12 11 12 10 12 13 13 13 13 12 12 12 12 12 12 13 12 7 11 10 8 11 13 14 14 15 14 13
-2 -3 -8 -10 -10 -5 -1 1 -4 -2 -2 -0 -1 -3 -5 -6 10 12 11 11 15 13 12 13 14 13 12 12 13 13 13 13 13 7 6 9 8 11 12 14 15 16 15 13
-4 -2 -6 -8 -10 -8 -4 -5 -2 -1 1 3 1 0 1 -0 3 11 10 14 13 14 13 14 15 14 13 13 13 14 13 13 13 12 7 6 6 5 12 12 14 14 14 14
-6 -4 -3 -6 -7 -6 -5 -3 -3 -2 0 2 1 1 -3 -2 -1 4 11 13 11 11 10 15 12 15 15 14 13 13 14 14 13 13 12 6 6 4 4 12 13 13 12 13
-4 -4 -1 -3 -6 -7 -7 -7 -7 1 2 3 4 3 -3 -5 -5 6 10 13 12 13 14 8 9 10 14 14 15 14 14 14 13 13 14 12 6 4 3 3 12 12 14 11
-3 -1 0 -1 -5 -6 -3 -5 -7 -8 -5 -2 1 2 -2 2 4 6 9 11 12 12 14 14 12 11 6 13 14 15 14 14 14 14 14 14 14 9 4 3 2 10 8 13
-4 -3 -1 0 -2 -4 -2 -4 -5 -5 -5 -5 -4 -2 -5 4 4 4 5 11 11 12 11 13 8 8 6 12 13 15 15 15 15 15 15 15 15 14 11 6 4 3 4 7
-3 -2 -3 -5 -5 -6 -5 -4 -3 -2 -4 -3 -4 -4 -5 5 4 5 6 11 12 13 13 14 11 13 13 11 14 15 15 15 16 17 16 16 16 16 16 14 10 6 4 4
-1 2 0 2 -1 -5 -5 -5 -4 -3 -4 -5 -5 -4 -3 -4 2 3 5 8 9 12 13 15 14 13 15 11 12 13 15 15 15 16 17 17 17 17 17 17 14 12 9 6
-1 1 3 3 1 1 0 -3 -5 -5 -5 -5 -4 -6 -6 -4 -4 9 11 9 10 11 11 12 13 15 14 13 14 14 13 16 16 16 16 17 17 17 17 17 17 16 14 11
-2 -1 2 3 3 4 -1 -4 -4 -4 -5 5 5 1 6 6 6 8 10 10 10 9 11 12 12 12 15 14 13 15 15 16 16 16 15 16 16 16 16 17 17 18 17 14
-2 -0 3 4 3 -1 -3 -6 3 3 4 5 5 6 6 7 5 8 8 9 8 9 9 11 11 10 12 16 16 16 12 15 16 16 15 15 15 16 16 16 16 17 17 17
0 1 4 4 6 5 3 1 1 -0 4 4 4 4 5 6 9 8 7 8 7 7 7 9 10 10 9 12 16 16 12 14 13 16 17 14 14 15 15 15 16 16 16 16
4 4 4 4 5 3 2 0 -0 3 5 4 4 4 5 5 6 6 7 7 7 7 7 8 8 9 9 11 13 17 11 11 11 16 17 15 14 14 15 15 15 15 16 16
5 7 5 5 5 5 4 3 5 5 4 4 4 5 5 5 5 6 7 7 7 7 8 9 8 7 8 11 13 15 14 16 17 15 16 17 16 15 15 16 15 15 15 16
4 4 4 5 6 4 3 4 3 3 3 4 4 4 6 6 5 6 6 7 7 8 8 8 8 7 8 11 13 14 16 16 16 16 14 17 17 16 16 16 16 16 16 16
2 2 3 2 1 2 3 2 3 2 2 3 4 4 4 6 6 6 5 6 7 8 8 9 8 5 5 10 13 14 15 17 17 16 16 14 17 17 17 17 17 17 17 17
3 2 3 3 2 2 2 2 2 2 2 2 3 4 5 5 6 6 6 6 6 7 9 8 8 7 3 5 9 13 14 16 17 17 17 17 15 18 17 18 18 18 18 18
2 2 3 3 1 2 2 2 2 2 2 2 3 3 4 4 5 5 6 6 7 8 8 8 8 6 4 3 5 10 13 15 17 17 18 17 15 18 18 18 18 19 19 19

GFSCGP_850_dewp_072.txt.gz
Dewpoint
-0 2 3 4 3 1 0 0 1 -1 -2 -3 14 17 17 16 15 16 15 15 13 13 13 12 10 9 10 12 12 12 11 11 11 14 13 15 15 15 14 15 15 14 14 14
3 4 2 1 2 1 1 1 1 -1 -2 12 17 18 16 16 16 16 15 15 14 13 13 14 11 9 9 10 12 12 12 11 10 13 13 14 15 15 14 14 15 15 14 14
5 4 2 2 2 3 2 1 1 -1 9 13 15 16 15 13 15 16 16 14 14 14 13 14 11 10 10 10 11 11 11 10 9 13 13 13 14 14 15 15 14 13 14 15
2 -0 -2 1 2 1 2 -2 -3 -3 -4 -3 9 17 15 14 16 16 16 15 15 14 13 13 12 10 10 10 10 10 10 10 9 11 11 12 14 15 14 14 14 14 14 14
-3 -0 0 0 -2 -1 1 -2 -4 -5 -4 -4 -5 -1 9 14 16 16 16 14 15 14 13 13 13 11 10 10 10 10 10 11 9 13 10 13 14 14 14 14 14 15 13 12
-10 -11 -6 -3 -3 -4 -4 -4 -5 -4 -4 -1 -3 -4 8 15 14 14 16 16 15 14 13 13 13 12 11 11 11 11 11 11 11 13 11 13 14 15 15 14 15 15 13 13
-8 -8 -13 -13 -9 -5 -5 -4 -1 -1 -1 -1 -3 -3 -4 11 12 12 14 15 14 14 14 13 13 12 11 11 11 11 11 11 11 11 13 11 14 14 14 15 15 15 14 14
-4 -6 -7 -9 -9 -5 -2 -4 -1 1 1 0 -3 -1 -4 3 10 10 11 13 14 13 13 13 13 12 11 11 11 11 11 12 11 9 12 10 12 14 14 15 14 14 14 14
-3 -4 -6 -7 -8 -8 -2 -0 -4 -2 -2 -0 -1 -2 -3 -5 7 11 11 11 13 12 13 13 13 13 12 11 11 11 11 11 12 11 8 11 9 13 13 14 14 14 13 13
-5 -3 -5 -5 -7 -6 -7 -6 -3 -2 1 2 1 -0 -0 -2 5 9 11 12 13 13 13 13 13 13 13 12 12 12 12 12 11 12 11 8 10 9 13 14 15 13 14 14
-5 -4 -3 -6 -4 -4 -5 -5 -6 -3 -0 3 2 0 -0 4 8 9 11 11 11 13 14 13 13 13 13 13 13 13 13 12 12 12 12 12 8 8 10 13 14 15 15 16
-4 -4 -2 -3 -5 -6 -7 -4 -5 -2 -2 1 3 3 -0 4 5 9 12 10 11 14 13 14 13 12 12 13 13 13 14 13 12 12 12 12 12 6 8 10 13 14 15 15
-4 -2 -0 -2 -3 -5 -4 -6 -5 -4 -4 -3 -1 -1 -4 2 7 10 12 13 13 13 13 13 11 12 14 14 13 13 14 14 13 13 12 12 13 11 5 6 11 12 14 15
-4 -3 -2 0 -1 -4 -4 -5 -6 -3 -2 -2 -3 -3 -5 -2 3 6 12 13 12 12 12 13 10 9 11 10 14 14 14 14 14 14 13 13 12 13 11 4 3 9 13 13
-3 -3 -2 -2 -1 -1 -1 -1 -4 -4 -3 -1 -3 -4 -6 -3 -3 8 11 12 13 14 14 14 14 13 11 12 10 14 14 15 15 15 14 14 13 13 13 13 7 2 5 11
-1 1 1 2 0 -0 -1 -3 -2 -4 -4 -4 -3 -2 6 6 10 11 11 13 12 12 13 12 14 14 14 12 12 11 15 15 15 15 15 14 14 14 14 13 14 12 5 3
-2 0 2 2 1 -1 -1 -4 -3 -3 -3 4 9 6 6 7 8 8 9 11 12 13 11 10 11 14 15 16 15 14 13 16 16 17 16 16 16 15 15 15 15 15 14 11
-3 -1 2 2 2 4 -2 -4 -4 -0 5 5 6 5 5 5 7 7 8 9 9 11 12 10 10 10 12 14 14 14 13 13 15 15 16 17 17 17 16 16 16 15 15 15
-3 -1 1 2 3 1 -1 -3 -4 3 6 4 4 4 4 5 7 6 6 7 8 9 11 10 8 8 8 9 13 14 15 15 14 13 15 17 18 17 17 17 17 16 16 15
0 0 3 2 3 4 -0 3 3 1 6 4 4 4 4 4 7 6 6 6 7 9 9 9 8 7 6 8 11 15 15 14 13 16 16 16 16 17 17 16 16 16 16 15
2 3 2 3 4 4 4 4 2 4 4 4 4 4 5 5 5 5 5 6 6 7 9 9 8 8 7 6 8 14 15 13 12 13 14 15 15 17 17 17 16 16 16 16
3 4 4 3 3 5 3 3 5 4 3 3 3 3 4 4 5 5 5 6 7 6 6 8 8 6 6 7 8 9 14 14 13 12 11 14 15 16 18 17 17 15 16 16
4 2 1 4 6 3 3 4 3 2 2 2 2 2 3 3 4 4 6 6 5 6 5 7 7 7 5 5 8 11 11 12 13 12 10 11 15 16 17 18 17 16 16 16
2 1 2 1 0 2 2 2 1 1 2 1 1 2 2 2 4 3 5 5 5 4 5 8 8 6 5 4 4 7 10 12 13 14 12 9 13 15 17 18 17 16 16 16
1 1 1 1 0 1 2 2 1 2 1 2 2 1 2 2 3 4 5 5 4 4 6 8 8 7 6 4 5 5 7 11 13 12 13 11 15 14 16 17 17 17 17 16
1 1 1 0 -1 1 1 1 1 2 2 2 1 2 2 2 2 3 4 4 4 5 6 7 7 7 6 4 4 6 5 9 12 13 14 16 17 16 15 16 17 17 17 17

GFSCGP_850_dewp_078.txt.gz
Dewpoint
-2 -0 2 1 3 3 3 2 2 0 -1 1 13 16 16 17 16 16 15 14 14 14 14 14 13 13 11 11 11 11 11 11 13 14 14 14 14 14 14 15 15 14 14 13
1 2 1 1 2 3 3 3 3 1 5 8 16 17 16 16 16 16 15 15 14 14 14 14 12 12 12 11 12 12 11 12 11 12 12 13 13 13 14 15 14 14 13 13
3 3 0 2 2 3 3 4 2 2 2 15 15 16 17 16 15 16 16 15 14 14 14 14 13 12 12 12 11 12 11 12 11 11 13 14 14 14 15 14 14 14 14 13
2 2 3 3 3 2 4 1 2 1 -3 -2 11 13 16 15 15 15 15 16 15 14 14 14 14 13 12 12 11 11 12 12 11 12 14 13 13 13 14 13 14 15 14 13
4 1 2 1 0 1 3 0 1 -1 -3 -4 1 7 11 14 15 15 15 15 16 14 14 14 14 14 13 12 11 11 12 12 12 12 13 13 13 12 14 14 14 15 14 14
-6 -10 -2 0 -1 -0 -2 -4 -4 -4 -4 -2 -4 -1 -2 14 15 14 13 14 15 15 14 13 13 13 13 12 11 11 12 12 12 12 11 12 12 12 13 12 14 15 15 15
-9 -8 -8 -8 -10 -5 -4 -3 -0 -1 -1 -0 -4 -3 2 -1 3 10 11 14 15 15 15 13 13 13 13 12 11 11 12 12 12 12 11 10 11 11 11 12 12 14 15 15
-6 -5 -6 -7 -7 -5 -4 -3 -1 0 1 -1 -3 -2 4 5 8 11 12 11 14 16 15 14 14 13 13 13 12 10 11 11 12 12 11 9 9 12 11 11 12 14 14 14
-4 -4 -6 -7 -7 -7 -3 -2 -4 -2 -2 -1 -1 3 1 1 6 11 12 12 13 15 16 15 14 14 13 13 13 12 10 10 11 11 11 11 9 10 8 10 13 13 13 14
-5 -4 -6 -6 -7 -7 -6 -7 -1 -1 1 1 0 4 4 -1 -1 4 12 13 13 13 15 15 15 14 14 13 13 13 12 10 10 11 10 11 11 9 8 10 12 13 13 14
-6 -7 -5 -5 -5 -5 -5 -4 -4 -3 -1 1 5 4 -3 -1 3 3 11 13 14 13 13 15 15 14 14 14 13 13 13 12 10 11 11 11 11 10 9 10 10 12 13 13
-4 -4 -2 -3 -5 -7 -6 -5 -4 -2 -2 -1 2 0 -5 5 8 11 12 14 15 13 13 15 15 14 14 13 13 13 13 13 12 11 11 11 11 11 9 9 7 9 12 13
-4 -3 -2 -3 -5 -5 -3 -4 -5 -4 -4 -1 2 2 -3 7 9 9 10 13 13 15 15 15 14 14 14 14 13 13 13 13 13 12 11 11 11 11 12 9 7 6 8 12
-4 -4 -4 -2 -3 -3 0 -1 -4 -4 -2 -1 -2 -2 4 7 8 8 9 11 13 13 14 15 15 15 15 15 14 14 14 13 13 13 13 12 11 11 12 12 11 7 5 7
-5 0 -1 -1 -1 -1 -1 -2 -3 -3 -4 -3 -3 0 6 7 8 7 7 9 11 12 11 12 14 15 15 14 14 13 14 14 14 14 13 13 12 12 11 12 12 12 11 5
-3 2 -0 0 -0 -2 -1 -2 -2 -3 -4 -3 -2 5 5 6 7 7 7 7 10 10 10 9 9 12 14 15 15 13 14 13 14 15 14 13 13 13 13 12 12 12 12 12
-2 -1 -0 0 1 -2 -2 -3 -3 -1 2 -1 0 4 5 5 6 6 7 7 8 9 8 8 8 8 10 12 14 15 14 13 13 14 15 15 14 14 14 14 14 13 13 13
-2 -1 -0 1 -1 -3 -6 -5 -3 3 5 5 5 5 4 4 2 5 5 6 7 7 8 7 6 7 7 8 12 14 15 15 14 14 15 15 15 14 15 15 15 14 14 14
-3 -1 1 1 1 -1 -2 4 4 4 4 4 4 4 4 2 1 4 5 4 6 7 7 7 6 5 5 6 8 12 15 15 15 15 16 16 16 16 16 16 15 15 15 15
0 -1 1 1 1 2 -2 3 2 3 5 4 4 4 3 2 2 6 4 -0 3 6 7 6 6 5 4 5 5 8 13 15 15 15 16 15 16 17 17 16 16 16 16 16
0 1 1 2 1 1 3 2 3 3 2 3 3 3 2 2 2 1 0 -1 -1 2 5 6 5 4 4 5 5 5 7 9 13 14 14 15 16 16 17 17 16 16 17 16
-0 1 3 3 3 3 2 2 3 2 2 2 1 1 1 2 1 -0 -2 -2 -1 -2 -1 2 5 4 3 4 6 5 4 5 7 11 13 14 14 15 16 16 17 17 17 16
1 -0 0 1 1 2 2 0 0 2 2 1 1 1 1 1 1 1 1 -2 -2 0 -2 -1 1 4 2 3 5 7 5 5 5 6 7 10 12 14 13 14 15 15 14 16
-0 1 -1 -1 -3 -1 -0 -1 0 1 1 1 1 1 1 1 0 0 0 1 -1 -1 0 -0 0 1 0 1 4 6 7 5 4 4 3 4 5 8 10 14 12 13 13 15
-1 1 -0 -1 -2 -2 -2 -1 -0 -0 -0 -0 -0 0 0 0 1 1 1 1 0 -0 0 1 1 1 1 3 3 5 6 6 5 4 3 4 4 3 6 10 13 12 13 15
0 -0 -0 -0 -3 -3 -3 -1 -0 -1 -1 -1 -1 1 1 2 1 1 1 2 0 0 0 1 1 1 1 3 5 5 5 6 6 5 4 4 3 3 5 6 12 15 16 15

GFSCGP_850_dewp_084.txt.gz
Dewpoint
-5 -2 -2 -1 0 5 5 6 6 10 11 8 8 12 15 16 16 15 14 14 13 10 11 13 14 13 12 12 13 15 15 15 14 15 16 16 16 16 16 16 15 14 15 13
-5 -2 -5 -0 4 5 5 5 4 4 3 2 5 7 14 16 15 15 15 14 13 11 12 13 14 14 12 12 12 14 15 13 11 15 16 16 16 16 16 14 16 16 15 13
-5 -5 -3 2 6 5 5 5 3 4 3 6 8 11 11 13 15 15 15 15 14 11 12 14 14 13 13 11 13 14 14 14 12 16 16 15 16 17 17 16 16 16 14 14
-6 -2 -0 2 4 3 5 5 3 1 1 8 7 15 14 13 15 15 15 15 14 14 13 12 14 14 13 12 12 14 13 12 12 13 16 17 15 15 15 16 16 17 16 15
-3 -2 2 3 3 2 2 3 4 2 1 -0 3 7 13 15 15 15 14 15 15 14 14 13 13 14 13 13 13 13 13 11 14 12 15 16 14 15 15 15 16 16 14 13
-0 -4 2 2 2 2 1 2 2 2 1 3 1 4 10 11 12 11 11 12 14 15 14 14 13 13 13 13 14 14 15 11 11 12 12 13 16 16 15 15 16 16 16 15
-2 0 -3 -2 5 3 1 0 3 6 4 2 -0 3 10 8 7 10 11 12 10 14 15 14 14 14 13 13 14 14 15 14 11 12 12 12 13 15 17 16 14 15 15 15
-3 -1 -4 -6 -1 3 1 -1 -0 5 3 1 0 6 6 5 8 11 12 13 12 12 14 15 14 14 14 14 14 15 15 15 12 12 12 12 12 16 15 15 14 15 15 15
-0 -3 -7 -7 -7 -4 1 1 -4 -2 -2 -1 1 5 4 6 9 11 14 14 14 13 12 14 15 14 14 14 15 15 16 15 14 11 11 12 12 12 15 15 16 15 15 15
-3 -2 -6 -7 -7 -6 -2 -2 -0 -3 3 3 1 7 6 9 11 12 14 14 15 14 14 15 14 14 14 14 14 15 15 15 13 13 12 12 12 11 11 15 16 16 15 16
-6 -4 -4 -5 -4 -3 -3 -2 -2 -3 -2 0 5 4 6 10 11 12 13 14 14 15 15 15 15 15 15 14 15 15 15 16 16 13 15 15 15 12 11 11 12 15 16 16
-5 -5 -3 -3 -6 -6 -5 -2 -1 0 2 -1 -1 5 6 9 10 11 12 13 13 14 15 16 16 16 16 15 15 15 15 15 16 16 15 15 14 16 15 11 11 11 13 15
-4 -4 -1 -3 -5 -5 -3 -4 -3 -2 -2 0 -1 5 6 8 10 11 12 12 11 12 12 14 15 16 16 16 16 15 15 15 15 15 16 16 16 16 12 13 11 11 11 10
-3 -4 -1 -3 -2 -4 -3 -4 -4 -3 -1 0 0 7 8 8 9 10 11 11 11 10 10 11 12 13 15 15 15 16 16 15 15 15 15 16 14 13 13 12 12 13 11 11
-3 -0 -2 -3 -4 -5 -5 -7 -6 -2 -1 1 1 4 7 7 8 8 10 10 10 10 10 9 10 10 10 13 14 15 15 15 16 16 16 16 16 16 14 13 13 11 13 12
-3 0 -2 -2 -4 -4 -5 -6 -6 -6 -4 -2 -0 5 5 7 7 7 8 8 9 9 9 9 9 9 9 9 11 14 15 15 14 15 16 16 17 17 17 17 15 13 13 13
-1 -1 -0 -3 -3 -5 -5 -6 -7 -6 -5 -4 -1 4 4 5 5 6 6 7 7 8 8 8 8 8 9 9 9 10 13 15 15 15 16 16 16 16 17 17 17 17 14 14
-1 -0 -2 -2 -2 -5 -2 -4 -7 -7 -2 -2 0 2 2 3 3 5 5 4 4 4 5 6 6 7 8 8 9 9 9 12 14 15 15 15 16 17 17 17 17 17 17 17
-3 -2 -1 -0 -4 -3 -4 -2 -3 -4 0 0 1 2 2 2 2 5 4 4 3 3 3 3 3 4 6 7 7 9 9 8 8 12 14 15 15 15 16 16 17 16 17 17
-3 -1 -0 -2 2 -1 -1 0 -0 -2 -1 2 2 3 2 2 -0 5 4 3 3 3 3 3 2 3 3 4 4 6 8 8 8 5 9 12 14 15 15 16 16 16 17 16
2 1 1 -0 1 -2 -1 -0 0 -1 4 2 2 3 2 1 2 3 2 2 2 2 2 2 2 3 3 4 4 5 6 7 7 3 4 7 10 13 14 15 16 15 15 17
3 4 3 1 3 3 -0 1 1 3 2 2 1 1 1 1 1 1 1 1 2 2 2 2 2 2 3 4 4 4 5 6 3 -1 2 4 5 7 12 14 15 15 16 15
3 1 3 1 2 2 1 1 3 1 -1 0 0 -0 1 0 0 1 1 1 1 1 2 2 2 2 3 3 4 5 5 5 5 -1 -5 0 3 4 4 8 11 13 14 15
-0 -0 2 2 -1 2 0 -1 -1 -1 -1 -0 0 -0 0 0 1 1 1 1 1 2 2 2 2 3 3 3 4 4 5 5 6 6 -1 -2 1 3 3 4 8 9 12 10
3 2 3 3 -1 -0 0 -1 -1 0 0 -0 -0 -1 -0 1 1 1 1 1 1 2 2 2 3 4 4 5 4 4 4 4 5 6 6 5 4 6 4 4 7 7 9 11
0 3 5 6 -1 -2 -2 -1 0 0 1 1 0 -0 1 1 1 1 0 1 1 1 2 2 2 3 3 4 4 5 5 4 5 6 5 4 4 4 5 5 4 3 3 4

GFSCGP_850_dewp_087.txt.gz
Dewpoint
-6 -4 -2 -2 -1 1 3 5 7 13 9 10 12 13 16 15 15 14 14 13 12 11 10 10 11 10 10 12 14 15 15 15 15 15 14 15 16 16 15 15 17 16 16 17
-6 -4 -6 -7 -5 0 4 4 5 10 8 7 9 12 14 14 13 14 14 13 13 12 9 11 12 11 10 11 13 15 15 16 16 15 15 14 16 16 15 16 17 16 17 17
-5 -6 -8 -7 -3 3 5 4 5 6 5 2 5 13 15 15 14 14 14 14 13 11 9 13 13 12 11 11 12 14 15 16 16 15 16 15 16 17 15 16 16 16 17 16
-5 -7 -6 -5 2 2 4 1 2 3 6 7 6 11 13 15 15 14 14 14 14 13 10 13 13 13 11 10 12 14 16 16 16 16 15 16 15 14 15 15 16 17 17 16
-4 -6 -4 -1 1 -0 -1 2 2 1 3 5 7 14 17 14 16 15 15 15 14 13 11 13 13 13 12 11 12 14 16 16 15 15 16 16 15 15 14 15 16 15 16 17
-6 -8 -4 -3 -2 -2 0 2 4 2 2 4 1 8 18 13 13 12 13 14 14 15 13 12 13 13 13 11 12 13 16 15 16 17 14 16 16 15 15 15 15 15 16 16
-0 -3 -2 -1 0 -1 2 3 6 6 5 3 -2 6 14 9 9 10 11 11 12 14 14 14 13 13 13 11 11 13 15 17 16 17 17 15 17 16 17 16 15 15 15 15
0 1 1 0 2 2 2 1 3 6 4 0 -2 8 9 7 9 11 12 12 12 11 13 14 14 14 13 13 12 13 15 16 18 17 17 17 17 16 15 15 15 13 15 14
-2 -2 -5 -3 -1 -1 2 2 -5 -3 -2 -2 4 8 8 9 10 13 14 15 15 11 13 14 15 14 13 13 13 13 14 16 18 17 18 17 16 13 15 14 15 15 15 16
-2 -1 -6 -7 -5 -3 -2 -2 -0 -2 2 2 6 8 8 10 12 13 14 15 16 15 12 14 14 14 16 14 13 13 15 16 17 18 18 17 18 17 14 16 16 15 15 15
-4 -3 -3 -6 -4 -1 -1 0 -1 -3 -3 1 7 8 7 11 12 14 13 13 14 16 16 17 17 15 14 14 14 14 15 16 17 17 17 17 17 17 17 17 17 16 14 15
-4 -4 -1 -4 -5 -6 -4 -2 -1 1 1 -3 2 9 8 8 11 12 12 12 13 14 15 15 16 16 16 15 15 16 15 15 15 16 17 17 17 17 17 18 17 17 16 15
-5 -4 -1 -2 -4 -5 -4 -4 -2 -3 -3 1 -0 10 8 8 10 11 12 12 12 12 13 13 14 16 15 15 16 16 15 16 15 15 16 17 17 17 17 17 17 17 17 15
-2 -4 -2 0 -2 -5 -2 -3 -3 -2 -0 0 2 10 9 9 11 11 11 11 11 10 11 11 12 12 14 15 16 16 16 15 15 15 15 16 17 17 17 17 17 17 17 17
-5 -3 -2 -3 -6 -5 -4 -4 -5 -2 -2 -0 7 9 8 8 9 10 10 10 11 10 10 10 10 10 11 12 14 15 15 16 15 15 15 16 16 17 17 17 18 15 17 17
-5 -1 -2 -3 -5 -7 -6 -7 -6 -4 -3 -2 4 8 6 6 7 7 8 9 9 10 10 10 10 10 10 10 10 13 14 15 15 15 15 16 16 16 17 18 17 17 14 16
-1 -3 -0 -3 -4 -6 -5 -6 -6 -7 -5 -3 5 7 6 6 6 6 7 7 7 8 8 8 8 8 9 9 10 10 11 13 14 14 15 15 15 16 16 17 17 17 18 17
-0 1 -1 -2 -1 -0 -4 -6 -9 -7 -5 -2 4 5 5 5 5 4 4 5 5 5 5 5 5 5 7 7 8 9 10 10 10 13 15 15 16 16 16 16 16 17 17 17
-5 -1 -1 -1 -1 -4 -3 -3 -7 -6 -2 -3 1 2 3 2 3 4 4 4 4 4 4 4 4 4 5 6 5 6 8 9 10 9 9 12 14 15 15 15 16 16 17 17
-6 -2 -1 -1 0 -2 -2 -4 -2 -7 -1 -1 -0 0 0 -0 0 5 4 3 3 3 3 3 3 3 4 5 4 5 6 7 8 9 10 10 8 12 14 15 15 15 16 17
-0 -0 0 -1 0 -2 -0 -2 -3 -1 3 1 -1 1 0 -0 4 4 3 2 2 2 2 3 3 3 3 4 4 5 6 6 8 8 8 9 8 5 9 13 14 15 16 15
1 2 1 0 1 3 -1 -2 -1 3 2 1 1 1 1 1 1 1 1 2 2 2 2 2 2 3 3 4 4 5 6 7 7 6 8 9 9 8 7 4 6 12 14 15
3 -0 3 -0 4 3 0 0 3 2 2 1 0 -0 0 -0 -0 0 1 1 1 2 2 2 2 3 3 4 5 5 5 6 6 6 6 8 8 8 8 2 4 9 11 12
-1 -1 2 2 1 2 1 1 -0 -2 -2 -1 -1 -2 -1 -1 -0 0 1 1 1 2 2 2 3 3 4 5 5 5 5 5 5 6 6 6 7 7 5 8 7 7 8 10
2 1 2 1 -0 0 0 -2 -2 -2 -1 -2 -1 -1 -1 -1 -0 0 0 1 1 1 2 2 3 3 3 3 4 4 5 5 5 5 5 5 5 5 4 5 6 7 4 6
-1 2 5 6 -0 -0 -2 0 -1 -0 -0 -0 -1 -1 -0 0 1 1 1 1 2 2 2 2 3 3 3 3 4 4 5 5 6 6 5 4 4 4 4 4 3 3 4 3